User: anonymous   Login
Location: Erlach
(47.0430°N, 7.0996°E)
Time: 10:21:52
(UTC+00:00)
Language:

STARLINK-1321 - Orbit

View from above orbital plane
View from above orbital plane
View from above satellite
View from above satellite

Ground track
Ground track

The orbit data is extracted from the following two-line orbital elements,

1 45573C 20025AU  21167.10886404  .00002183  00000-0  14633-3 0  1672
2 45573  53.0550 272.0263 0001182 126.4000  98.5043 15.06383239    11
Epoch (UTC): 16 June 2021 02:36:45
Eccentricity: 0.0001182
inclination: 53.0550°
perigee height: 546 km
apogee height: 548 km
right ascension of ascending node: 272.0263°
argument of perigee: 126.4000°
revolutions per day: 15.06383239
mean anomaly at epoch: 98.5043°
orbit number at epoch: 1

The dashed part of the orbit path shows where the satellite is in the earth's shadow,  

DLR